Retour au catalogue

ATLAS 5 CENTAUR R/B

ActifHEO
NORAD 53356·ROCKET BODY·🇺🇸 United States

Lancé Aug 4, 2022 depuis Cape Canaveral Space Force Station

Loading…

Prochains Passages (prochaines 24 heures)

TLE

FraisSource: Space-Track

Époque: Sep 14, 2026, 14:23 UTC

1 53356U 22092B   26257.59944616  .00000046  00000-0  00000-0 0  9993
2 53356  15.9531  93.9519 5613317 222.3384  77.1627  1.99514659 29981

Suivez ATLAS 5 CENTAUR R/B en temps réel avec AllMySat

Download on the App Store